SENTINEL-2B (42063 NORAD) Tracking and Keplerian Element Data

This shows tracking and keplerian element data for the satellite.

Feedback or suggestion? Click here.




ElementValue
Catalog42063
NameSENTINEL-2B
Epoch Orbit41343
Epoch Day35.16557508
Epoch Year2025
RAAN112.103
Inclination98.5697
Eccentricity9.61E-05
Argument of Perigee94.5418
Mean Anonmoly265.5875
Mean Motion14.30821793
Decay Rate3.11E-06
L11 42063U 17013A 25035.16557508 .00000311 00000+0 13532-3 0 9990
L22 42063 98.5697 112.1030 0000961 94.5418 265.5875 14.30821793413437



Live tracking and technical data element details for SENTINEL-2B (NORAD 42063). SENTINEL-2B can be tracked NOW for your location showing map with azimuth and elevation plus other details from your city location.







IsCatalogInMostPopularTable: catalog: 42063, numindb: 608
Update: records affected: 1



GetName: 42063 SENTINEL-2B

Hit Count: updated at: Thu, 15 May 2025 10:18:12 GMT